Terminal Aerodrome Forecast
Issued by NWS

Home | Current Version | Previous Version | Text Only | Print | Product List | Glossary On
Versions: 1 2 3 4 5 6 7 8 9 10 11 12 13 14 15 16 17 18 19 20 21
000
FTUS44 KBMX 152300
TAFTOI
TAF
KTOI 152336Z 1600/1624 35010KT P6SM SKC
     FM160900 03008KT P6SM SKC
     FM161500 09009G15KT P6SM SKC=

USA.gov is the U.S. government's official web portal to all federal, state and local government web resources and services.